Location: *
(50.6089°N, 2.2719°E)
Time: 11:22:44
(UTC+00:00)

CENTAUR R/B - Pass Details

Date: 18 October 2019
Orbit: 781 x 1407 km, 63.4° (Epoch: 10 November)

Event Time Altitude Azimuth Distance (km) Brightness Sun altitude
Rises 19:08:12 0° 182° (S) 3,435 5.3 -22.0°
Reaches altitude 10° 19:10:49 10° 171° (S) 2,575 4.5 -22.4°
Enters shadow 19:11:09 11° 169° (S) 2,479 4.4 -22.5°
